Weather History for KVWU - October, 2011

Change the Weather History Date:

Saturday, October 15, 2011

  Actual Average (KBDE) Record (KBDE)
Temperature  
Mean Temperature 45 °F -  
Max Temperature 51 °F 52 °F 83 °F (1988)
Min Temperature 39 °F 32 °F 18 °F (1940)
Degree Days  
Heating Degree Days 20    
Moisture  
Dew Point 35 °F    
Average Humidity 68    
Maximum Humidity 93    
Minimum Humidity 54    
Precipitation  
Precipitation 0.00 in - - ()
Sea Level Pressure  
Sea Level Pressure 29.74 in    
Wind  
Wind Speed 15 mph (West)    
Max Wind Speed 21 mph    
Max Gust Speed 29 mph    
Visibility 10 miles    
Events      
Averages and records for this station are not official NWS values.
T = Trace of Precipitation, MM = Missing Value Source: NWS Daily Summary

Daily Weather History Graph

Daily Weather History Graph

Search for Another Location

Airport or City:

Trip Planner

Search our weather history database for the weather conditions in past years. The results will help you decide how hot, cold, wet, or windy it might be!

Date:

Astronomy

Oct. 15, 2011 Rise Set
Actual Time 7:37 AM CDT 6:29 PM CDT
Civil Twilight 7:05 AM CDT 7:01 PM CDT
Nautical Twilight 6:29 AM CDT 7:37 PM CDT
Astronomical Twilight 5:53 AM CDT 8:13 PM CDT
Moon 8:07 PM CDT (10/15) 11:21 AM CDT (10/15)
Length of Visible Light 11h 55m
Length of Day
10h 52m
Waning Gibbous, 89% of the Moon is Illuminated
Oct 15
Waning Gibbous
Oct 19
Last Quarter
Oct 26
New
Nov 2
First Quarter
Nov 10
Full

Hourly Weather History & Observations

Time (CDT) Temp. Windchill Dew Point Humidity Pressure Visibility Wind Dir Wind Speed Gust Speed Precip Events Conditions
12:12 AM 44.6 °F 38.1 °F 33.8 °F 66% 29.74 in 10.0 mi West 13.8 mph 19.6 mph N/A   Overcast
12:32 AM 44.6 °F 37.2 °F 33.8 °F 66% 29.74 in 10.0 mi WNW 17.3 mph 21.9 mph N/A   Overcast
12:52 AM 42.8 °F 34.8 °F 33.8 °F 70% 29.74 in 10.0 mi West 17.3 mph 20.7 mph N/A   Overcast
1:12 AM 42.8 °F 35.4 °F 33.8 °F 70% 29.75 in 10.0 mi West 15.0 mph 25.3 mph N/A   Overcast
1:32 AM 42.8 °F 36.2 °F 32.0 °F 66% 29.75 in 10.0 mi West 12.7 mph 23.0 mph N/A   Overcast
1:52 AM 42.8 °F 36.2 °F 33.8 °F 70% 29.75 in 10.0 mi West 12.7 mph 24.2 mph N/A   Overcast
2:12 AM 42.8 °F 35.4 °F 32.0 °F 66% 29.75 in 10.0 mi West 15.0 mph 21.9 mph N/A   Overcast
2:32 AM 42.8 °F 35.1 °F 33.8 °F 70% 29.75 in 10.0 mi West 16.1 mph 20.7 mph N/A   Overcast
2:52 AM 42.8 °F 35.8 °F 32.0 °F 66% 29.75 in 10.0 mi West 13.8 mph 21.9 mph N/A   Overcast
3:13 AM 42.8 °F 35.4 °F 32.0 °F 66% 29.75 in 10.0 mi West 15.0 mph 20.7 mph N/A   Overcast
3:32 AM 42.8 °F 36.2 °F 32.0 °F 66% 29.75 in 10.0 mi West 12.7 mph 20.7 mph N/A   Mostly Cloudy
3:52 AM 42.8 °F 35.4 °F 33.8 °F 70% 29.75 in 10.0 mi West 15.0 mph 21.9 mph N/A   Mostly Cloudy
4:13 AM 42.8 °F 36.6 °F 33.8 °F 70% 29.75 in 10.0 mi West 11.5 mph 20.7 mph N/A   Overcast
4:33 AM 42.8 °F 36.2 °F 33.8 °F 70% 29.75 in 10.0 mi West 12.7 mph 23.0 mph N/A   Mostly Cloudy
4:53 AM 42.8 °F 35.4 °F 33.8 °F 70% 29.75 in 10.0 mi West 15.0 mph 21.9 mph N/A   Overcast
5:12 AM 42.8 °F 35.1 °F 33.8 °F 70% 29.75 in 10.0 mi West 16.1 mph 20.7 mph N/A   Mostly Cloudy
5:32 AM 42.8 °F 35.4 °F 33.8 °F 70% 29.76 in 10.0 mi West 15.0 mph 20.7 mph N/A   Overcast
5:53 AM 42.8 °F 35.4 °F 32.0 °F 66% 29.76 in 10.0 mi West 15.0 mph 23.0 mph N/A   Scattered Clouds
6:12 AM 42.8 °F 35.4 °F 33.8 °F 70% 29.76 in 10.0 mi West 15.0 mph 20.7 mph N/A   Scattered Clouds
6:32 AM 42.8 °F 36.6 °F 33.8 °F 70% 29.76 in 10.0 mi West 11.5 mph 20.7 mph N/A   Mostly Cloudy
7:12 AM 42.8 °F 35.8 °F 35.6 °F 76% 29.75 in 10.0 mi West 13.8 mph 19.6 mph N/A   Scattered Clouds
7:32 AM 41.0 °F 33.1 °F 35.6 °F 81% 29.75 in 10.0 mi West 15.0 mph 23.0 mph N/A   Overcast
7:52 AM 39.2 °F 31.2 °F 35.6 °F 87% 29.75 in 10.0 mi West 13.8 mph 20.7 mph N/A   Overcast
8:12 AM 39.2 °F 30.8 °F 35.6 °F 87% 29.76 in 10.0 mi WNW 15.0 mph 20.7 mph N/A   Overcast
8:32 AM 39.2 °F 30.8 °F 35.6 °F 87% 29.75 in 10.0 mi West 15.0 mph 21.9 mph N/A   Overcast
8:52 AM 39.2 °F 30.5 °F 37.4 °F 93% 29.75 in 10.0 mi West 16.1 mph 24.2 mph N/A   Scattered Clouds
9:12 AM 41.0 °F 32.8 °F 37.4 °F 87% 29.75 in 10.0 mi West 16.1 mph 23.0 mph N/A   Scattered Clouds
9:32 AM 42.8 °F 35.1 °F 37.4 °F 81% 29.75 in 10.0 mi West 16.1 mph 25.3 mph N/A   Scattered Clouds
9:52 AM 42.8 °F 35.1 °F 35.6 °F 76% 29.76 in 10.0 mi West 16.1 mph 21.9 mph N/A   Scattered Clouds
10:12 AM 42.8 °F 34.8 °F 35.6 °F 76% 29.76 in 10.0 mi West 17.3 mph 25.3 mph N/A   Mostly Cloudy
10:33 AM 42.8 °F 35.1 °F 35.6 °F 76% 29.76 in 10.0 mi West 16.1 mph 24.2 mph N/A   Overcast
10:52 AM 42.8 °F 35.8 °F 35.6 °F 76% 29.76 in 10.0 mi West 13.8 mph 23.0 mph N/A   Overcast
11:12 AM 42.8 °F 35.8 °F 35.6 °F 76% 29.76 in 10.0 mi West 13.8 mph 21.9 mph N/A   Overcast
11:32 AM 44.6 °F 38.1 °F 35.6 °F 71% 29.76 in 10.0 mi West 13.8 mph 19.6 mph N/A   Overcast
11:52 AM 44.6 °F 38.1 °F 33.8 °F 66% 29.76 in 10.0 mi West 13.8 mph 23.0 mph N/A   Overcast
12:12 PM 44.6 °F 36.6 °F 33.8 °F 66% 29.75 in 10.0 mi West 19.6 mph 28.8 mph N/A   Overcast
12:32 PM 46.4 °F 38.7 °F 33.8 °F 62% 29.76 in 10.0 mi West 20.7 mph 28.8 mph N/A   Overcast
12:53 PM 46.4 °F 39.5 °F 33.8 °F 62% 29.75 in 10.0 mi West 17.3 mph 25.3 mph N/A   Overcast
1:13 PM 46.4 °F 39.8 °F 33.8 °F 62% 29.75 in 10.0 mi West 16.1 mph 21.9 mph N/A   Mostly Cloudy
1:32 PM 46.4 °F 40.1 °F 33.8 °F 62% 29.74 in 10.0 mi West 15.0 mph 21.9 mph N/A   Mostly Cloudy
1:52 PM 46.4 °F 40.7 °F 35.6 °F 66% 29.74 in 10.0 mi West 12.7 mph 21.9 mph N/A   Overcast
2:12 PM 46.4 °F 39.2 °F 35.6 °F 66% 29.73 in 10.0 mi West 18.4 mph 23.0 mph N/A   Scattered Clouds
2:33 PM 50.0 °F - 35.6 °F 58% 29.73 in 10.0 mi West 15.0 mph 23.0 mph N/A   Clear
2:52 PM 50.0 °F - 35.6 °F 58% 29.73 in 10.0 mi West 17.3 mph 23.0 mph N/A   Scattered Clouds
3:12 PM 50.0 °F - 33.8 °F 54% 29.72 in 10.0 mi West 18.4 mph 23.0 mph N/A   Scattered Clouds
3:32 PM 51.8 °F - 35.6 °F 54% 29.73 in 10.0 mi West 16.1 mph 23.0 mph N/A   Scattered Clouds
3:52 PM 51.8 °F - 35.6 °F 54% 29.73 in 10.0 mi West 18.4 mph 26.5 mph N/A   Scattered Clouds
4:12 PM 50.0 °F - 35.6 °F 58% 29.72 in 10.0 mi West 18.4 mph 26.5 mph N/A   Clear
4:32 PM 50.0 °F - 35.6 °F 58% 29.72 in 10.0 mi West 16.1 mph 25.3 mph N/A   Scattered Clouds
4:52 PM 50.0 °F - 35.6 °F 58% 29.72 in 10.0 mi West 13.8 mph 25.3 mph N/A   Scattered Clouds
5:12 PM 50.0 °F - 35.6 °F 58% 29.72 in 10.0 mi West 19.6 mph 25.3 mph N/A   Scattered Clouds
5:32 PM 50.0 °F - 33.8 °F 54% 29.72 in 10.0 mi West 19.6 mph 24.2 mph N/A   Scattered Clouds
5:52 PM 50.0 °F - 35.6 °F 58% 29.72 in 10.0 mi West 13.8 mph 26.5 mph N/A   Clear
6:12 PM 48.2 °F - 33.8 °F 58% 29.73 in 10.0 mi West 12.7 mph 21.9 mph N/A   Clear
6:33 PM 48.2 °F - 35.6 °F 62% 29.74 in 10.0 mi West 16.1 mph 25.3 mph N/A   Clear
7:12 PM 48.2 °F - 35.6 °F 62% 29.74 in 10.0 mi West 13.8 mph 21.9 mph N/A   Mostly Cloudy
7:32 PM 48.2 °F - 35.6 °F 62% 29.74 in 10.0 mi West 11.5 mph 18.4 mph N/A   Overcast
7:52 PM 48.2 °F - 35.6 °F 62% 29.73 in 10.0 mi West 12.7 mph 19.6 mph N/A   Mostly Cloudy
8:12 PM 48.2 °F - 35.6 °F 62% 29.73 in 10.0 mi West 15.0 mph 20.7 mph N/A   Scattered Clouds
8:32 PM 48.2 °F - 37.4 °F 66% 29.73 in 10.0 mi West 15.0 mph 21.9 mph N/A   Clear
8:52 PM 48.2 °F - 37.4 °F 66% 29.72 in 10.0 mi West 15.0 mph 20.7 mph N/A   Clear
9:12 PM 48.2 °F - 37.4 °F 66% 29.72 in 10.0 mi West 17.3 mph 23.0 mph N/A   Clear
9:32 PM 48.2 °F - 37.4 °F 66% 29.71 in 10.0 mi WSW 15.0 mph 20.7 mph N/A   Clear
9:52 PM 48.2 °F - 37.4 °F 66% 29.72 in 10.0 mi West 16.1 mph 21.9 mph N/A   Clear
10:12 PM 48.2 °F - 37.4 °F 66% 29.72 in 10.0 mi West 15.0 mph 23.0 mph N/A   Scattered Clouds
10:32 PM 48.2 °F - 39.2 °F 71% 29.71 in 10.0 mi WSW 13.8 mph - N/A   Scattered Clouds
11:12 PM 48.2 °F - 39.2 °F 71% 29.71 in 10.0 mi WSW 17.3 mph 23.0 mph N/A   Scattered Clouds
11:32 PM 48.2 °F - 39.2 °F 71% 29.71 in 10.0 mi West 20.7 mph 25.3 mph N/A   Mostly Cloudy
11:52 PM 48.2 °F - 37.4 °F 66% 29.71 in 10.0 mi West 18.4 mph 25.3 mph N/A   Mostly Cloudy